Satellite: HOT BIRD 1
Catalog number: 23537
Epoch time:      103099.84635997
Element set:     540 
Inclination:        0.0227 deg
RA of node:       231.2698 deg
Eccentricity:    0.0003930
Arg of perigee:   159.6337 deg
Mean anomaly:     124.4056 deg
Mean motion:    1.00270936 rev/day
Decay rate:    8.8000E-007 rev/day^2
Epoch rev:            2947
Checksum:              297

Satellite: GOES 9
Catalog number: 23581
Epoch time:      103115.43531464
Element set:     636 
Inclination:        0.1093 deg
RA of node:       276.8934 deg
Eccentricity:    0.0013864
Arg of perigee:   234.7711 deg
Mean anomaly:      12.3842 deg
Mean motion:    1.00056853 rev/day
Decay rate:   -2.2100E-006 rev/day^2
Epoch rev:            2902
Checksum:              263

Satellite: INMARSAT 3-F1
Catalog number: 23839
Epoch time:      103116.83803448
Element set:     921 
Inclination:        0.0713 deg
RA of node:        27.9184 deg
Eccentricity:    0.0004597
Arg of perigee:     9.0585 deg
Mean anomaly:     183.0038 deg
Mean motion:    1.00270625 rev/day
Decay rate:    5.9999E-008 rev/day^2
Epoch rev:            2588
Checksum:              312

Satellite: ASTRA 1F
Catalog number: 23842
Epoch time:      103108.00000000
Element set:     567 
Inclination:        0.0122 deg
RA of node:       319.8851 deg
Eccentricity:    0.0002995
Arg of perigee:    65.1991 deg
Mean anomaly:     199.7635 deg
Mean motion:    1.00273184 rev/day
Decay rate:    1.1399E-006 rev/day^2
Epoch rev:            2570
Checksum:              264

Satellite: JAS 2
Catalog number: 24278
Epoch time:      103117.95180262
Element set:     577 
Inclination:       98.5498 deg
RA of node:       259.9214 deg
Eccentricity:    0.0351477
Arg of perigee:    39.3215 deg
Mean anomaly:     323.2896 deg
Mean motion:   13.52878819 rev/day
Decay rate:   -3.3000E-007 rev/day^2
Epoch rev:           33055
Checksum:              336

Satellite: UNAMSAT
Catalog number: 24305
Epoch time:      103117.82157133
Element set:     686 
Inclination:       82.9316 deg
RA of node:       212.3062 deg
Eccentricity:    0.0032385
Arg of perigee:    13.9467 deg
Mean anomaly:     346.2568 deg
Mean motion:   13.73460860 rev/day
Decay rate:    2.0499E-006 rev/day^2
Epoch rev:           33285
Checksum:              304

Satellite: INMARSAT 3-F2
Catalog number: 24307
Epoch time:      103114.94954284
Element set:     113 
Inclination:        0.0993 deg
RA of node:        22.4006 deg
Eccentricity:    0.0005494
Arg of perigee:   346.1395 deg
Mean anomaly:     170.3944 deg
Mean motion:    1.00271717 rev/day
Decay rate:   -1.3799E-006 rev/day^2
Epoch rev:            2427
Checksum:              283

Satellite: HOT BIRD 2
Catalog number: 24665
Epoch time:      103104.95823611
Element set:     349 
Inclination:        0.0337 deg
RA of node:       189.6656 deg
Eccentricity:    0.0009067
Arg of perigee:   269.9979 deg
Mean anomaly:     100.9111 deg
Mean motion:    1.00271489 rev/day
Decay rate:    9.9999E-009 rev/day^2
Epoch rev:            2381
Checksum:              334

Satellite: INMARSAT 3-F3
Catalog number: 24674
Epoch time:      103117.45945615
Element set:     36 
Inclination:        0.1080 deg
RA of node:        61.1044 deg
Eccentricity:    0.0003557
Arg of perigee:   321.3070 deg
Mean anomaly:     176.1329 deg
Mean motion:    1.00274399 rev/day
Decay rate:    3.1999E-007 rev/day^2
Epoch rev:            2326
Checksum:              275

Satellite: GOES 10
Catalog number: 24786
Epoch time:      103118.35678564
Element set:     657 
Inclination:        0.3061 deg
RA of node:        99.9919 deg
Eccentricity:    0.0004780
Arg of perigee:   326.2163 deg
Mean anomaly:     143.3544 deg
Mean motion:    1.00284836 rev/day
Decay rate:    8.1000E-007 rev/day^2
Epoch rev:            2202
Checksum:              288

Satellite: INMARSAT 3-F4
Catalog number: 24819
Epoch time:      103117.64065485
Element set:     914 
Inclination:        0.0832 deg
RA of node:        56.5437 deg
Eccentricity:    0.0002630
Arg of perigee:   325.6887 deg
Mean anomaly:       9.5071 deg
Mean motion:    1.00266656 rev/day
Decay rate:   -2.9299E-006 rev/day^2
Epoch rev:            2169
Checksum:              308

Satellite: FENGYUN 2A
Catalog number: 24834
Epoch time:      103117.89564301
Element set:     6 
Inclination:        2.7407 deg
RA of node:        87.6952 deg
Eccentricity:    0.0001363
Arg of perigee:     3.4190 deg
Mean anomaly:     173.1058 deg
Mean motion:    1.00267013 rev/day
Decay rate:   -2.0099E-006 rev/day^2
Epoch rev:            2152
Checksum:              255

Satellite: HOT BIRD 3
Catalog number: 24931
Epoch time:      103099.84635997
Element set:     430 
Inclination:        0.0632 deg
RA of node:        21.1145 deg
Eccentricity:    0.0006301
Arg of perigee:   353.2368 deg
Mean anomaly:     140.9901 deg
Mean motion:    1.00272510 rev/day
Decay rate:    8.8000E-007 rev/day^2
Epoch rev:            2058
Checksum:              255

Satellite: METEOSAT 7
Catalog number: 24932
Epoch time:      103117.88490163
Element set:     279 
Inclination:        0.3737 deg
RA of node:        78.6758 deg
Eccentricity:    0.0000683
Arg of perigee:   276.9623 deg
Mean anomaly:     177.8607 deg
Mean motion:    1.00271609 rev/day
Decay rate:   -1.3999E-007 rev/day^2
Epoch rev:            2070
Checksum:              330

Satellite: ASTRA 1G
Catalog number: 25071
Epoch time:      103108.00000000
Element set:     399 
Inclination:        0.0122 deg
RA of node:       319.8851 deg
Eccentricity:    0.0002995
Arg of perigee:    65.1991 deg
Mean anomaly:     199.8263 deg
Mean motion:    1.00273184 rev/day
Decay rate:    1.1399E-006 rev/day^2
Epoch rev:            1972
Checksum:              266

Satellite: INMARSAT 3-F5
Catalog number: 25153
Epoch time:      103117.92553477
Element set:     878 
Inclination:        0.4516 deg
RA of node:         5.9122 deg
Eccentricity:    0.0002915
Arg of perigee:   355.8848 deg
Mean anomaly:     211.9054 deg
Mean motion:    1.00275506 rev/day
Decay rate:    1.3400E-006 rev/day^2
Epoch rev:            1918
Checksum:              285

Satellite: HOT BIRD 4
Catalog number: 25237
Epoch time:      103099.84635997
Element set:     334 
Inclination:        0.0316 deg
RA of node:       347.7932 deg
Eccentricity:    0.0006645
Arg of perigee:    69.4486 deg
Mean anomaly:      98.0254 deg
Mean motion:    1.00270260 rev/day
Decay rate:    8.7000E-007 rev/day^2
Epoch rev:            1904
Checksum:              300

Satellite: NOAA 15
Catalog number: 25338
Epoch time:      103118.51527475
Element set:     94 
Inclination:       98.5429 deg
RA of node:       138.7877 deg
Eccentricity:    0.0011561
Arg of perigee:   114.3177 deg
Mean anomaly:     245.9215 deg
Mean motion:   14.24277592 rev/day
Decay rate:    2.0400E-006 rev/day^2
Epoch rev:           25761
Checksum:              317

Satellite: RESURS O1-N4
Catalog number: 25394
Epoch time:      103118.21936475
Element set:     505 
Inclination:       98.6202 deg
RA of node:       194.8409 deg
Eccentricity:    0.0000480
Arg of perigee:   281.1401 deg
Mean anomaly:      78.9723 deg
Mean motion:   14.23903379 rev/day
Decay rate:    1.4700E-006 rev/day^2
Epoch rev:           24930
Checksum:              304

Satellite: TMSAT
Catalog number: 25396
Epoch time:      103118.20721741
Element set:     843 
Inclination:       98.6144 deg
RA of node:       193.9252 deg
Eccentricity:    0.0001858
Arg of perigee:   311.0228 deg
Mean anomaly:      49.0791 deg
Mean motion:   14.23532809 rev/day
Decay rate:   -4.3000E-007 rev/day^2
Epoch rev:           24929
Checksum:              296

Satellite: TECHSAT 1B
Catalog number: 25397
Epoch time:      103117.97458888
Element set:     206 
Inclination:       98.6115 deg
RA of node:       192.4923 deg
Eccentricity:    0.0000946
Arg of perigee:   359.2937 deg
Mean anomaly:       0.8241 deg
Mean motion:   14.22975541 rev/day
Decay rate:    7.2000E-007 rev/day^2
Epoch rev:           24922
Checksum:              321

Satellite: ASTRA 2A
Catalog number: 25462
Epoch time:      103108.00000000
Element set:     541 
Inclination:        0.0385 deg
RA of node:       308.7109 deg
Eccentricity:    0.0004824
Arg of perigee:   280.8620 deg
Mean anomaly:       4.3097 deg
Mean motion:    1.00272094 rev/day
Decay rate:    1.4400E-006 rev/day^2
Epoch rev:            1702
Checksum:              213

Satellite: EUTELSAT W2
Catalog number: 25491
Epoch time:      103114.89855904
Element set:     602 
Inclination:        0.0348 deg
RA of node:        75.4007 deg
Eccentricity:    0.0003740
Arg of perigee:   320.9809 deg
Mean anomaly:     155.6107 deg
Mean motion:    1.00273675 rev/day
Decay rate:    8.9000E-007 rev/day^2
Epoch rev:            1670
Checksum:              274

Satellite: HOT BIRD 5
Catalog number: 25495
Epoch time:      103115.92117697
Element set:     510 
Inclination:        0.0407 deg
RA of node:       123.6596 deg
Eccentricity:    0.0007575
Arg of perigee:   305.2431 deg
Mean anomaly:     141.9568 deg
Mean motion:    1.00273835 rev/day
Decay rate:    1.3100E-006 rev/day^2
Epoch rev:            1668
Checksum:              278

